Orbital elements:
2020 XC3                                                 Earth MOID = 0.0344 AU
Epoch 2023 Sept. 13.0 TT = JDT 2460200.5                Veres                   
M 336.34988              (2000.0)            P               Q                  
n   0.32955607     Peri.  339.02373     +0.54090209     -0.76269269             
a   2.0757888      Node    76.58361     +0.81424394     +0.36918290             
e   0.5186312      Incl.   21.37835     +0.21078838     +0.53104034             
P   2.99           H   22.54          G   0.15           U   0                  
Residuals in seconds of arc
201209 G96  0.0   0.2-    201216 I52  0.1-  0.3-    231209 I52  0.3-  0.2-
201209 G96  0.1+  0.2+    201217 I52  0.0   0.3-    231209 I52  0.2+  0.5-
201209 G96  0.3+  0.0     201217 I52  0.1-  0.2-    231209 I52  0.2+  0.1-
201209 G96  0.1-  0.3-    201217 I52  0.1+  0.1-    231209 I52  0.5+  0.4-
201209 I52  0.3-  0.3+    201217 I52  0.3-  0.3-    231209 I52  0.2+  0.0
201209 I52  0.5-  0.7+    201219 I52  0.2-  0.3-    231209 I52  0.0   0.4-
201209 I52  0.2+  0.4+    201219 I52  0.1-  0.0     231209 I52  0.2+  0.3-
201209 I52  0.1-  0.2-    201219 I52  0.2+  0.3-    231209 I52  0.1-  0.5-
201209 474  0.0   0.2+    201219 I52  0.0   0.2-    231209 900  0.3+  0.3-
201209 474  0.5-  0.3-    201220 I52  0.5-  0.0     231209 900  1.2+  0.0
201210 807  0.4-  0.1+    201220 I52  0.0   0.2-    231209 900  0.0   0.2-
201210 807  0.3+  0.1-    201220 I52  0.3+  0.4+    231209 J95  0.4-  0.2-
201210 807 (0.5+  0.8-)   201220 I52  0.0   0.2-    231209 J95  0.3+  0.2-
201210 F52  0.1-  0.1-    201222 I52 (0.2+  1.4+)   231209 J95  0.3-  0.7-
201210 F52  0.0   0.1+    201222 I52  0.2-  0.0     231209 J95  0.1-  0.1+
201210 F52 (0.1+  0.5+)   201222 I52  0.3-  0.1-    231209 958  0.0   0.0
201210 F52 (0.3-  0.4-)   201222 I52  0.3-  0.1-    231209 958  0.1+  0.0
201210 N88  1.4+  0.3-    201223 H21  0.4+  0.5-    231209 958  0.4+  0.0
201210 N88  0.2-  0.8+    201223 H21  0.3+  0.3-    231209 J95  0.0   0.6-
201210 W34  0.2-  0.5+    201223 H21  0.4+  0.1-    231209 J95  0.4+  0.2-
201211 W34  0.1+  0.5+    201223 H21  0.3+  0.1-    231209 J95  0.1+  0.2-
201211 W34  0.8-  0.3-    201224 I52  0.5-  0.4-    231209 J95  0.2-  0.1-
201211 H21  0.2-  0.2+    201224 I52  0.2+  0.1+    231209 J95  0.2+  0.2-
201211 H21  0.2-  0.1+    201224 I52  0.2-  0.2-    231209 Z80  0.1+  0.2-
201211 H21  0.4-  0.1+    201224 I52 (0.3-  1.1-)   231209 Z80  0.1-  0.3-
201214 807  0.2-  0.3+    201226 I52  0.0   0.3+    231210 807  0.5+  0.3-
201214 807  0.1+  0.3+    201226 I52  0.1+  0.2-    231210 807  0.1-  0.1+
201214 807  0.0   0.1+    201226 I52  0.2+  0.3-    231210 807 (0.9+  0.4+)
201214 I52  0.8-  0.3-    231207 F52  0.0   0.1-    231210 H36  0.5-  0.4+
201214 I52  0.1+  0.2+    231207 F52  0.0   0.1-    231210 734  0.1+  0.4+
201214 I52  0.5-  0.1+    231207 F52  0.0   0.2+    231210 H36  0.4-  0.7+
201214 I52  0.4-  0.1-    231207 474  0.6+  0.1-    231210 734  0.3+  0.3+
201215 807  0.0   0.1-    231207 474  0.4-  0.0     231210 H36  0.9+  0.2+
201215 807  0.2+  0.1-    231207 474  0.0   0.3-    231210 734  0.3+  0.3+
201215 807  0.2-  0.0     231207 474  0.0   0.1-    231210 734  0.4+  0.1+
201215 F51  0.1+  0.3+    231207 O85  0.1+  0.8-    231210 T05  0.2-  1.7-
201215 F51  0.0   0.1+    231207 O85  0.1+  0.4+    231210 T05  0.1-  0.1-
201215 F51  0.1+  0.1+    231207 O85  0.1+  0.7+    231210 T05  0.5-  1.3-
201215 F51  0.0   0.2+    231207 O85  0.3+  0.3-    231210 T05  0.0   0.1+
201215 C51  0.9+  1.1-    231207 O85  0.2+  0.2-    231210 900  0.1-  0.2-
201215 C51  1.0+  1.2-    231207 O85  0.2-  0.1+    231210 900  0.2+  0.2-
201216 I52  0.1+  0.5-    231209 703  0.4+  0.3-    231210 900  0.1+  0.3-
201216 I52  0.3-  0.2-    231209 703  0.4+  0.5-
201216 I52  0.3+  0.7-    231209 703  0.1+  0.1+

Ephemeris:
2020 XC3                 a,e,i = 2.08, 0.52, 21                  q = 0.9992
Date    TT    R. A. (2000) Decl.     Delta      r    Elong.  Phase     V
2023 11 10    01 02 25.8 -72 50 35   0.2479  1.0136    88.2    77.6    22.3
...
2023 11 25    01 23 59.1 -62 52 22   0.1377  0.9993    91.1    81.0    21.1
...
2023 12 03    01 41 31.1 -45 23 14   0.08059 1.0058   102.0    73.5    19.7
...
2023 12 09    01 59 12.7 -08 09 38   0.05259 1.0168   126.0    51.6    18.1
2023 12 10    02 02 42.1 +01 00 44   0.05135 1.0192   130.7    47.1    17.9
2023 12 11    02 06 22.6 +10 23 43   0.05149 1.0217   134.6    43.3    17.8
...
2023 12 17    02 33 02.8 +51 48 12   0.07604 1.0394   135.1    42.0    18.7
...
2023 12 25    03 23 11.7 +70 38 28   0.1348  1.0700   126.9    47.3    20.1
...
2024 01 09    05 20 25.4 +77 31 06   0.2589  1.1451   123.0    46.1    21.7

A. U. Tomatic                (C) Copyright 2023 MPC           M.P.E.C. 2023-X184





More information about the Iaude mailing list